   C. Fuls, A. R. Gibbs, A. D. Grauer, J. A. Johnson, R. A. Kowalski, S. M.
   Larson, G. J. Leonard, R. G. Matheny, R. L. Seaman, F. C. Shelly. 1.0-m
   reflector + CCD.
(J04) ESA Optical Ground Station, Tenerife  (N28.300924 W16.511830)  Canary
   Islands (Spain).  Observer D. Abreu. Measurers M. Micheli, D. Koschny, E.
   Schwab, M. Busch, A. Knöfel. 1.0-m f/4.4 reflector + CCD.
(J95) Great Shefford  (N51.474969 W1.447003)  UK.  Observer P. Birtwhistle.
   0.40-m f/6.0 Schmidt-Cassegrain + CCD.
(K51) Osservatorio del Celado, Castello Tesino  (N46.029412 E11.657900)
   Italy.
(Y00) SONEAR Observatory, Oliveira  (S20.715082 W44.784960)  Brazil.
   Observers C. Jacques, E. Pimentel, J. Barros. Measurer C. Jacques. 0.28-m
   f/2.2 astrograph + CCD.

Orbital elements:  2007-004D = Themis-D = NORAD 30797
   Perigee 2018 Apr 30.564100 +/- 0.00018 TT = 13:32:18 (JD 2458239.064100)
Epoch 2018 May  1.0 TT; AMR 0.049935 +/- 0.0114 m2/kg        Gray
M 118.02395 +/- 0.048               (J2000 equator)
n 270.75926984 +/- 0.00034          Peri.  247.93450 +/- 0.007
a 51075.7340 +/- 0.0427             Node   119.26183 +/- 0.0006
e   0.8476715 +/- 3.65e-5           Incl.    4.98062 +/- 0.0010
P1914.58m/1.330d           H 30.2   G  0.15   U  7.4
q 7780.28882 +/- 1.86    Q 94371.1792 +/- 1.88
34 of 105 observations 2018 Mar. 22-May 17; mean residual 9".545
Residuals in arcseconds: 
160207 703( 29d- 1315+)   171215 703( 170- 23.8+)   180206 703( 237- 4.54-)
160207 703( 29d- 1308+)   171215 703( 175- 24.3+)   180322 703 24.7- .845-
160207 703( 28d- 1296+)   171215 I52( 176- 24.1+)   180322 703 23.8- .749-
160207 703( 28d- 1203+)   171215 703( 175- 24.4+)   180322 703 24.3- .676-
160207 703( 28d- 1189+)   171215 I52( 176- 24.0+)   180322 703 24.0- .705-
160207 703( 28d- 1181+)   171215 703( 175- 24.3+)   180407 703 11.2+ .063+
160207 G96( 28d- 1075+)   171215 I52( 176- 24.2+)   180407 703 7.48+ .521+
160207 G96( 28d- 1048+)   171215 703( 176- 24.4+)   180407 703 3.11+ .807-
160207 G96( 28d- 1034+)   171215 I52( 176- 24.3+)   180407 703 7.21+ .070-
160207 I52( 27d-  904+)   171215 703( 176- 24.5+)   180411 703 12.2+ .188-
160207 I52( 27d-  902+)   171215 I52( 175- 24.4+)   180411 703 12.9+ 1.7m-
171116 703( 33d- 1141+)   171215 703( 176- 24.3+)   180411 703 12.7+ .057+
171116 703( 34d- 1849+)   171215 I52( 176- 24.5+)   180419 Y00 5.49+ .759+
171116 K51(118d- 793'-)   171215 703( 175- 24.1+)   180419 Y00 6.03+ 2.35+
171116 K51(118d- 796'-)   171215 I52( 176- 24.5+)   180419 Y00 6.75+ 1.46+
171116 K51(119d- 799'-)   171215 703( 176- 24.6+)   180423 703 15.9+ .481-
171116 104(124d- 870'-)   171215 I52( 176- 24.5+)   180423 703 16.2+ .501-
171116 104(124d- 878'-)   171215 I52( 177- 24.3+)   180423 703 16.5+ .114-
171116 104(125d- 881'-)   171215 I52( 177- 24.2+)   180423 703 17.0+ .702-
171116 J04(124d- 964'-)   171215 I52( 177- 24.5+)   180430 Y00 6.73+ .376+
171116 J04(124d- 965'-)   171215 I52( 177- 24.4+)   180430 Y00 6.21+ .780+
171116 J04(124d- 965'-)   171220 G96( 684- 51.3-)   180430 Y00 6.43+ 1.00+
171116 595(127d- 899'-)   171220 G96( 683- 51.2-)   180505 703 8.79+ .591+
171116 595(128d- 904'-)   171220 G96( 683- 51.2-)   180505 703 9.67+ .138+
171116 595(128d- 912'-)   171220 G96( 684- 51.2-)   180505 703 7.18+ 2.57-
171116 J95(130d- 920'-)   171220 G96( 681- 43.4-)   180516 Y00 13.0- 2.06-
171116 J95(130d- 921'-)   171220 G96( 682- 43.6-)   180516 Y00 12.2- 2.10-
171116 J95(131d- 923'-)   171220 G96( 682- 43.5-)   180516 Y00 12.9- 1.63-
171215 703( 136- 21.5+)   171220 G96( 681- 43.5-)   180517 G96 10.7- .727+
171215 703( 138- 21.1+)   171220 G96( 681- 40.0-)   180517 G96 12.2- .661+
171215 703( 145- 21.3+)   171220 G96( 681- 39.9-)   180517 G96 12.7- .858+
171215 703( 148- 22.0+)   171220 G96( 681- 39.9-)   180517 G96 12.5- .422+
171215 703( 168- 23.7+)   171220 G96( 681- 39.9-)   180517 703 13.5- .892+
171215 703( 169- 23.7+)   180206 703( 228- 4.87-)   180517 703 11.8- 0.99+
171215 703( 169- 23.7+)   180206 703( 229- 4.11-)   180517 703 12.8- 1.36+

Ephemerides (geocentric):
Date (UTC) HH   RA              Dec         delta  elong  mag " sig PA
---- -- -- --  -------------   -----------  ------ -----  --- ---- ---
2018 05 17 00  12 01 30.009   +04 28 17.75   89334 122.7 16.2  2.7  89
2018 05 17 01  12 09 12.308   +04 32 20.69   91329 124.3 16.2  2.6  90
2018 05 17 02  12 16 37.446   +04 35 57.03   92803 125.9 16.1  2.2  91
2018 05 17 03  12 23 51.100   +04 39 10.99   93771 127.4 16.1  1.7  93
2018 05 17 04  12 30 58.233   +04 42 05.62   94241 128.9 16.1  .94  98
2018 05 17 05  12 38 03.417   +04 44 43.10   94219 130.4 16.1  .19 174
2018 05 17 06  12 45 11.111   +04 47 04.92   93704 131.8 16.0  1.1  77
2018 05 17 07  12 52 25.918   +04 49 11.89   92691 133.3 15.9  2.4  83
2018 05 17 08  12 59 52.858   +04 51 04.19   91171 134.8 15.9  4.0  85
2018 05 17 09  13 07 37.709   +04 52 41.30   89128 136.3 15.8  5.9  86
2018 05 17 10  13 15 47.466   +04 54 01.79   86539 137.9 15.7  8.2  87
2018 05 17 11  13 24 31.011   +04 55 02.98   83376 139.6 15.5 10.9  88
2018 05 17 12  13 34 00.180   +04 55 40.31   79598 141.4 15.4 14.4  88
2018 05 17 13  13 44 31.546   +04 55 46.09   75152 143.4 15.2 18.9  89
2018 05 17 14  13 56 29.639   +04 55 07.18   69966 145.5 15.0 24.8  89
2018 05 17 15  14 10 33.252   +04 53 19.85   63940 147.8 14.7 33.2  90
2018 05 17 16  14 27 49.136   +04 49 37.66   56932 150.5 14.4 45.8  90
2018 05 17 17  14 50 26.365   +04 42 17.93   48727 153.4 14.0 67.0  91
2018 05 17 18  15 23 22.784   +04 26 44.79   38974 155.9 13.4  110  92
2018 05 17 19  16 22 16.269   +03 45 30.85   27043 154.3 12.7  232  93
2018 05 17 20  19 29 39.566   +00 14 11.40   12098 119.8 11.9 1122  95
2018 05 17 21  06 41 16.940   -01 15 20.91   14882  49.6 15??  654  85
2018 05 17 22  09 01 01.805   +01 42 27.72   29344  80.8 15.3  137  86
2018 05 17 23  09 52 44.486   +02 42 02.76   40827  92.6 15.5 55.1  86
2018 05 18 00  10 23 07.646   +03 13 22.38   50273  99.5 15.6 27.0  87
2018 05 18 01  10 44 29.497   +03 33 23.12   58246 104.4 15.8 14.0  88
2018 05 18 02  11 01 01.606   +03 47 36.34   65068 108.1 15.9  6.9  89
2018 05 18 03  11 14 37.154   +03 58 24.56   70936 111.1 16.0  2.8  91
2018 05 18 04  11 26 16.086   +04 07 00.07   75985 113.7 16.1  .31 115
2018 05 18 05  11 36 33.828   +04 14 03.82   80308 116.0 16.1  1.3  83
2018 05 18 06  11 45 53.071   +04 20 00.91   83973 118.0 16.2  2.2  86
2018 05 18 07  11 54 29.313   +04 25 07.62   87031 119.9 16.2  2.6  87
2018 05 18 08  12 02 33.725   +04 29 35.01   89520 121.6 16.2  2.7  88
2018 05 18 09  12 10 14.766   +04 33 30.83   91468 123.2 16.2  2.6  89
2018 05 18 10  12 17 39.160   +04 37 00.63   92896 124.8 16.2  2.2  91
2018 05 18 11  12 24 52.511   +04 40 08.47   93818 126.3 16.2  1.7  93
2018 05 18 12  12 31 59.741   +04 42 57.27   94244 127.8 16.1  .92  99
2018 05 18 13  12 39 05.410   +04 45 29.11   94178 129.3 16.1  .19   4
2018 05 18 14  12 46 13.987   +04 47 45.35   93618 130.8 16.0  1.2  78
2018 05 18 15  12 53 30.104   +04 49 46.73   92560 132.3 16.0  2.5  83
2018 05 18 16  13 00 58.843   +04 51 33.31   90993 133.8 15.9  4.1  85
2018 05 18 17  13 08 46.079   +04 53 04.45   88901 135.3 15.8  6.0  86
2018 05 18 18  13 16 58.953   +04 54 18.55   86262 137.0 15.7  8.3  87
2018 05 18 19  13 25 46.578   +04 55 12.70   83044 138.7 15.5 11.2  88
2018 05 18 20  13 35 21.146   +04 55 42.00   79208 140.5 15.4 14.8  88
2018 05 18 21  13 45 59.813   +04 55 38.24   74697 142.5 15.2 19.3  89
2018 05 18 22  13 58 08.113   +04 54 47.31   69438 144.7 15.0 25.5  89
2018 05 18 23  14 12 26.703   +04 52 43.69   63329 147.1 14.7 34.2  90
2018 05 19 00  14 30 06.189   +04 48 37.10   56222 149.8 14.4 47.4  90
2018 05 19 01  14 53 24.904   +04 40 34.87   47892 152.9 13.9 70.0  91
2018 05 19 02  15 27 48.915   +04 23 27.88   37971 155.7 13.4  117  92
2018 05 19 03  16 31 08.512   +03 36 50.09   25792 153.8 12.6  256  93
2018 05 19 04  20 14 56.695   -00 45 46.31   10714 110.8 11.9 1429  95
2018 05 19 05  07 05 08.589   -00 43 36.33   16347  53.6 15??  537  85
2018 05 19 06  09 07 42.236   +01 51 54.99   30507  81.1 15.3  125  86
2018 05 19 07  09 56 23.760   +02 47 12.59   41766  92.2 15.5 51.8  87
2018 05 19 08  10 25 40.161   +03 16 57.11   51057  98.8 15.7 25.6  87
2018 05 19 09  10 46 28.950   +03 36 09.82   58913 103.5 15.9 13.3  88
2018 05 19 10  11 02 41.909   +03 49 54.12   65640 107.2 16.0  6.5  89
2018 05 19 11  11 16 05.258   +04 00 22.86   71428 110.2 16.1  2.6  92